Location: Curicchi
(45.0167°N, 12.0500°E)
Time: 22:11:28
(UTC+00:00)

BREEZE-M DEB (TANK) - Pass Details

Date: 07 June 2020
Orbit: 325 x 12053 km, 49.6° (Epoch: 13 July)

Event Time Altitude Azimuth Distance (km) Brightness Sun altitude
Rises 01:24:10 0° 290° (WNW) 2,344 5.2 -15.7°
Reaches altitude 10° 01:26:19 10° 301° (WNW) 1,281 4.0 -15.5°
Maximum altitude 01:28:31 34° 11° (NNE) 577 2.9 -15.3°
Drops below altitude 10° 01:31:04 10° 81° (E) 1,487 4.9 -15.0°
Sets 01:33:49 0° 91° (E) 2,849 6.2 -14.8°
